VE3KSR Weather Reports


Display with metric or nautical units.
time (UTC)temp
F
wind
direction
speed
MPH
gust
MPH
rain 1hr
in
rain 24hr
in
rain mn
in
humidity
%
barometer
mb
20180118052933 12 246 21.0 29.0 3.94 0.00 0.00 91 1020.4
20180118052432 12 259 21.0 31.0 3.94 0.00 0.00 90 1020.3
20180118051931 12 260 19.0 26.0 3.94 0.00 0.00 91 1020.4
20180118051432 12 263 21.0 26.0 3.94 0.00 0.00 91 1020.5
20180118050931 12 249 19.0 25.0 3.94 0.00 0.00 90 1020.4
20180118050433 12 255 21.0 27.0 3.94 0.00 0.00 90 1020.4
20180118045933 12 243 19.0 26.0 3.94 0.00 0.00 91 1020.4
20180118045433 13 255 21.0 28.0 3.94 0.00 0.00 91 1020.5
20180118044932 13 250 24.0 30.0 3.94 0.00 0.00 89 1020.5
20180118044433 13 253 26.0 32.0 3.94 0.00 0.00 89 1020.4
20180118043931 13 253 24.0 30.0 3.94 0.00 0.00 91 1020.5
20180118043432 13 274 21.0 27.0 3.94 0.00 0.00 90 1020.6
20180118042932 13 260 20.0 27.0 3.94 0.00 0.00 91 1020.8
20180118042431 13 249 22.0 29.0 3.94 0.00 0.00 90 1020.6
20180118041931 13 264 21.0 32.0 3.94 0.00 0.00 89 1020.9
20180118041432 13 269 20.0 27.0 3.94 0.00 0.00 89 1020.9
20180118040931 13 257 20.0 26.0 3.94 0.00 0.00 89 1020.9
20180118040431 13 262 20.0 30.0 3.94 0.00 0.00 89 1021.0
20180118035931 13 250 21.0 27.0 3.94 0.00 0.00 89 1020.9
20180118035432 13 284 21.0 30.0 3.94 0.00 0.00 90 1020.8
20180118035009 12 263 22.0 28.0 3.94 0.00 0.00 91 1020.9
20180118034932 12 263 22.0 28.0 3.94 0.00 0.00 91 1020.9
20180118034431 12 243 23.0 30.0 3.94 0.00 0.00 91 1020.8
20180118033932 12 260 23.0 29.0 3.94 0.00 0.00 90 1020.9
20180118033432 12 240 22.0 28.0 3.94 0.00 0.00 91 1020.8
20180118032932 12 250 23.0 32.0 3.94 0.00 0.00 91 1020.9
20180118032432 12 255 24.0 30.0 3.94 0.00 0.00 89 1020.9
20180118032012 12 252 24.0 32.0 3.94 0.00 0.00 90 1021.1
20180118031932 12 252 24.0 32.0 3.94 0.00 0.00 90 1021.1
20180118031433 12 249 23.0 29.0 3.94 0.00 0.00 90 1021.2
20180118030932 12 257 21.0 27.0 3.94 0.00 0.00 91 1021.4
20180118030432 12 262 21.0 28.0 3.94 0.00 0.00 90 1021.5
20180118025932 12 259 24.0 32.0 3.94 0.00 0.00 90 1021.5
20180118025432 12 259 21.0 29.0 3.94 0.00 0.00 91 1021.6
20180118024932 12 245 21.0 28.0 3.94 0.00 0.00 91 1021.6
20180118024432 12 249 22.0 29.0 3.94 0.00 0.00 91 1021.7
20180118023932 12 256 24.0 30.0 3.94 0.00 0.00 93 1021.8
20180118023432 12 235 22.0 29.0 3.94 0.00 0.00 91 1021.8
20180118022932 12 238 21.0 26.0 3.94 0.00 0.00 90 1021.9
20180118022432 12 248 21.0 27.0 3.94 0.00 0.00 92 1022.0
20180118021932 12 255 22.0 27.0 3.94 0.00 0.00 92 1022.1
20180118021432 12 248 23.0 28.0 3.94 0.00 0.00 92 1022.3
20180118020932 12 270 23.0 30.0 3.94 0.00 0.00 92 1022.5
20180118020432 12 245 22.0 28.0 3.94 0.00 0.00 93 1022.5
20180118015932 12 260 21.0 26.0 3.94 0.00 0.00 93 1022.7
20180118015432 12 263 18.0 25.0 3.94 0.00 0.00 93 1022.9
20180118014932 12 250 20.0 25.0 3.94 0.00 0.00 93 1023.1
20180118014432 12 259 22.0 29.0 3.94 0.00 0.00 92 1023.1
20180118013932 12 257 21.0 27.0 3.94 0.00 0.00 92 1022.9
20180118013432 12 243 22.0 29.0 3.94 0.00 0.00 93 1023.2
20180118012932 12 232 19.0 24.0 3.94 0.00 0.00 93 1023.3
20180118012432 12 250 20.0 26.0 3.94 0.00 0.00 91 1023.3
20180118011932 12 243 20.0 25.0 3.94 0.00 0.00 91 1023.5
20180118011433 12 248 20.0 26.0 3.94 0.00 0.00 91 1023.5
20180118010932 12 263 22.0 31.0 3.94 0.00 0.00 91 1023.5
20180118010432 12 250 24.0 31.0 3.94 0.00 0.00 92 1023.7
20180118005932 12 250 19.0 27.0 3.94 0.00 0.00 91 1023.8
20180118005432 12 240 22.0 28.0 3.94 0.00 0.00 91 1024.0
20180118004932 12 252 19.0 24.0 3.94 0.00 0.00 91 1024.0
20180118004434 12 248 20.0 29.0 3.94 0.00 0.00 91 1024.0
20180118003933 12 246 21.0 30.0 3.94 0.00 0.00 91 1024.2
20180118003433 12 246 19.0 23.0 3.94 0.00 0.00 91 1024.1
20180118002933 12 257 19.0 29.0 3.94 0.00 0.00 90 1024.3
20180118002432 13 260 19.0 25.0 3.94 0.00 0.00 89 1024.4
20180118001932 13 246 22.0 27.0 3.94 0.00 0.00 90 1024.3
20180118001432 13 250 21.0 24.0 3.94 0.00 0.00 89 1024.3
20180118000932 13 252 20.0 27.0 3.94 0.00 0.00 88 1024.6
20180118000432 13 246 20.0 25.0 3.94 0.00 0.00 88 1024.6
20180117235932 13 232 20.0 26.0 3.94 0.00 0.00 90 1024.6
20180117235433 13 252 18.0 24.0 3.94 0.00 0.00 89 1024.7
20180117234933 13 249 19.0 25.0 3.94 0.00 0.00 89 1024.7
20180117234432 13 249 18.0 23.0 3.94 0.00 0.00 88 1024.9
20180117233932 13 243 18.0 22.0 3.94 0.00 0.00 87 1025.0
20180117233432 13 255 18.0 21.0 3.94 0.00 0.00 72 1025.0
20180117232932 13 250 18.0 22.0 3.94 0.00 0.00 87 1025.3
20180117232432 13 255 17.0 21.0 3.94 0.00 0.00 90 1025.4
20180117231932 13 260 15.0 22.0 3.94 0.00 0.00 89 1025.4
20180117231432 13 260 17.0 21.0 3.94 0.00 0.00 88 1025.5
20180117230932 13 249 17.0 22.0 3.94 0.00 0.00 88 1025.4
20180117230432 13 246 18.0 23.0 3.94 0.00 0.00 87 1025.4
20180117225934 13 250 18.0 24.0 3.94 0.00 0.00 87 1025.4
20180117225432 13 260 17.0 23.0 3.94 0.00 0.00 86 1025.5
20180117224932 13 242 18.0 23.0 3.94 0.00 0.00 88 1025.5
20180117224432 13 253 17.0 23.0 3.94 0.00 0.00 86 1025.6
20180117223932 13 263 15.0 18.0 3.94 0.00 0.00 88 1025.8
20180117223433 13 249 16.0 21.0 3.94 0.00 0.00 88 1025.9
20180117222932 13 236 14.0 18.0 3.94 0.00 0.00 87 1026.1
20180117222432 14 236 15.0 19.0 3.94 0.00 0.00 86 1025.9
20180117221932 14 246 15.0 22.0 3.94 0.00 0.00 86 1026.0
20180117221432 14 246 16.0 20.0 3.94 0.00 0.00 85 1026.0
20180117220932 14 257 17.0 23.0 3.94 0.00 0.00 84 1026.1
20180117220432 14 257 16.0 20.0 3.94 0.00 0.00 86 1026.1
20180117215932 14 239 16.0 21.0 3.94 0.00 0.00 87 1026.1
20180117215433 14 256 15.0 19.0 3.94 0.00 0.00 86 1026.0
20180117214932 14 253 16.0 19.0 3.94 0.00 0.00 86 1026.2
20180117214432 14 252 16.0 19.0 3.94 0.00 0.00 84 1026.4
20180117213932 15 250 17.0 19.0 3.94 0.00 0.00 84 1026.4
20180117213432 15 239 17.0 20.0 3.94 0.00 0.00 81 1026.6
20180117212933 16 248 17.0 21.0 3.94 0.00 0.00 83 1026.6
20180117212433 16 240 14.0 19.0 3.94 0.00 0.00 83 1026.6
20180117211932 16 253 16.0 20.0 3.94 0.00 0.00 84 1026.6
20180117211433 16 240 14.0 18.0 3.94 0.00 0.00 83 1026.7
20180117210933 16 252 14.0 20.0 3.94 0.00 0.00 83 1026.7
20180117210432 16 238 16.0 24.0 3.94 0.00 0.00 81 1026.7
20180117205933 16 257 19.0 23.0 3.94 0.00 0.00 80 1026.7
20180117205433 16 243 19.0 24.0 3.94 0.00 0.00 80 1026.8
20180117204933 16 249 18.0 27.0 3.94 0.00 0.00 80 1026.8
20180117204432 16 262 18.0 25.0 3.94 0.00 0.00 80 1026.8
20180117203934 16 250 16.0 24.0 3.94 0.00 0.00 80 1026.7
20180117203432 16 248 17.0 24.0 3.94 0.00 0.00 80 1026.7
20180117202932 16 0 0.0 0.0 3.94 0.00 0.00 80 1026.7
20180117202432 16 0 0.0 0.0 3.94 0.00 0.00 79 1026.9
20180117201933 16 0 0.0 0.0 3.94 0.00 0.00 79 1026.9
20180117201432 16 0 0.0 0.0 3.94 0.00 0.00 79 1026.9
20180117200934 16 0 0.0 0.0 3.94 0.00 0.00 78 1026.9
20180117200433 16 0 0.0 0.0 3.94 0.00 0.00 79 1027.0
20180117194934 16 0 0.0 0.0 3.94 0.00 0.00 78 1027.3
20180117194433 15 0 0.0 0.0 3.94 0.00 0.00 78 1027.3
20180117193933 15 0 0.0 0.0 3.94 0.00 0.00 77 1027.3
20180117193433 15 0 0.0 0.0 3.94 0.00 0.00 77 1027.4
20180117192933 15 0 0.0 0.0 3.94 0.00 0.00 76 1027.5
20180117192433 15 0 0.0 0.0 3.94 0.00 0.00 76 1027.6
20180117191933 15 0 0.0 0.0 3.94 0.00 0.00 77 1027.7
20180117191433 15 0 0.0 0.0 3.94 0.00 0.00 76 1027.9
20180117190933 15 0 0.0 0.0 3.94 0.00 0.00 76 1027.9
20180117190433 15 0 0.0 0.0 3.94 0.00 0.00 76 1027.9
20180117185933 15 0 0.0 0.0 3.94 0.00 0.00 76 1028.0
20180117185433 14 0 0.0 0.0 3.94 0.00 0.00 76 1027.9
20180117184933 15 0 0.0 0.0 3.94 0.00 0.00 75 1028.0
20180117184433 15 0 0.0 0.0 3.94 0.00 0.00 77 1028.1
20180117183933 14 0 0.0 0.0 3.94 0.00 0.00 77 1028.2
20180117183433 14 0 0.0 0.0 3.94 0.00 0.00 79 1028.3
20180117182933 14 0 0.0 0.0 3.94 0.00 0.00 78 1028.4
20180117182433 14 0 0.0 0.0 3.94 0.00 0.00 78 1028.5
20180117181934 14 0 0.0 0.0 3.94 0.00 0.00 77 1028.7
20180117181433 14 0 0.0 0.0 3.94 0.00 0.00 76 1028.7
20180117180933 13 0 0.0 0.0 3.94 0.00 0.00 77 1028.9
20180117180435 13 0 0.0 0.0 3.94 0.00 0.00 77 1029.0
20180117175933 13 0 0.0 0.0 3.94 0.00 0.00 77 1029.1
20180117175433 13 0 0.0 0.0 3.94 0.00 0.00 78 1029.4
20180117174933 13 0 0.0 0.0 3.94 0.00 0.00 80 1029.4
20180117174433 12 0 0.0 0.0 3.94 0.00 0.00 78 1029.5
20180117173934 12 0 0.0 0.0 3.94 0.00 0.00 80 1029.7
20180117173439 12 0 0.0 0.0 3.94 0.00 0.00 80 1029.7
20180117172933 12 0 0.0 0.0 3.94 0.00 0.00 83 1029.8
20180117172433 11 0 0.0 0.0 3.94 0.00 0.00 83 1029.9
20180117171933 11 0 0.0 0.0 3.94 0.00 0.00 82 1029.9
20180117171433 11 0 0.0 0.0 3.94 0.00 0.00 84 1030.0
20180117170933 11 0 0.0 0.0 3.94 0.00 0.00 86 1030.1
20180117170433 11 0 0.0 0.0 3.94 0.00 0.00 85 1030.2
20180117165933 11 0 0.0 0.0 3.94 0.00 0.00 86 1030.3
20180117165433 11 0 0.0 0.0 3.94 0.00 0.00 85 1030.3
20180117164933 11 0 0.0 0.0 3.94 0.00 0.00 85 1030.4
20180117164433 11 0 0.0 0.0 3.94 0.00 0.00 85 1030.6
20180117163935 10 0 0.0 0.0 3.94 0.00 0.00 85 1030.7
20180117163433 10 0 0.0 0.0 3.94 0.00 0.00 84 1030.8
20180117162934 10 0 0.0 0.0 3.94 0.00 0.00 84 1030.9
20180117162433 10 0 0.0 0.0 3.94 0.00 0.00 84 1031.1
20180117161933 10 0 0.0 0.0 3.94 0.00 0.00 84 1031.1
20180117161433 10 0 0.0 0.0 3.94 0.00 0.00 85 1031.3
20180117160933 10 0 0.0 0.0 3.94 0.00 0.00 84 1031.4
20180117160433 9 0 0.0 0.0 3.94 0.00 0.00 84 1031.5
20180117155933 9 0 0.0 0.0 3.94 0.00 0.00 83 1031.5
20180117155437 9 0 0.0 0.0 3.94 0.00 0.00 84 1031.6
20180117155009 9 0 0.0 0.0 3.94 0.00 0.00 84 1031.7
20180117154936 9 0 0.0 0.0 3.94 0.00 0.00 84 1031.7
20180117154433 9 0 0.0 0.0 3.94 0.00 0.00 84 1031.7
20180117153933 9 0 0.0 0.0 3.94 0.00 0.00 84 1031.8
20180117153521 9 0 0.0 0.0 3.94 0.00 0.00 85 1031.8
20180117153434 9 0 0.0 0.0 3.94 0.00 0.00 85 1031.8
20180117152933 9 0 0.0 0.0 3.94 0.00 0.00 85 1031.7
20180117152433 9 0 0.0 0.0 3.94 0.00 0.00 85 1031.7
20180117151934 9 0 0.0 0.0 3.94 0.00 0.00 88 1031.8
20180117151434 9 0 0.0 0.0 3.94 0.00 0.00 85 1031.8
20180117150934 9 0 0.0 0.0 3.94 0.00 0.00 87 1031.8
20180117150433 8 0 0.0 0.0 3.94 0.00 0.00 86 1031.8
20180117145933 8 0 0.0 0.0 3.94 0.00 0.00 86 1031.8
20180117145433 8 0 0.0 0.0 3.94 0.00 0.00 86 1031.8
20180117144935 8 0 0.0 0.0 3.94 0.00 0.00 87 1031.7
20180117144433 8 0 0.0 0.0 3.94 0.00 0.00 87 1031.7
20180117143933 8 0 0.0 0.0 3.94 0.00 0.00 86 1031.8
20180117143433 8 0 0.0 0.0 3.94 0.00 0.00 87 1031.7
20180117142933 8 0 0.0 0.0 3.94 0.00 0.00 87 1031.6
20180117142433 8 0 0.0 0.0 3.94 0.00 0.00 86 1031.6
20180117141933 8 0 0.0 0.0 3.94 0.00 0.00 88 1031.6
20180117141436 8 0 0.0 0.0 3.94 0.00 0.00 87 1031.4
20180117140933 7 0 0.0 0.0 3.94 0.00 0.00 91 1031.4
20180117140433 7 0 0.0 0.0 3.94 0.00 0.00 88 1031.4
20180117135933 6 0 0.0 0.0 3.94 0.00 0.00 91 1031.3
20180117135433 6 0 0.0 0.0 3.94 0.00 0.00 89 1031.3
20180117134933 6 0 0.0 0.0 3.94 0.00 0.00 89 1031.3
20180117134433 6 0 0.0 0.0 3.94 0.00 0.00 91 1031.3
20180117133933 6 0 0.0 0.0 3.94 0.00 0.00 89 1031.3
20180117133434 6 0 0.0 0.0 3.94 0.00 0.00 90 1031.2
20180117132934 6 0 0.0 0.0 3.94 0.00 0.00 90 1031.2
20180117132433 6 0 0.0 0.0 3.94 0.00 0.00 90 1031.2
20180117131933 6 0 0.0 0.0 3.94 0.00 0.00 89 1031.1
20180117131433 7 0 0.0 0.0 3.94 0.00 0.00 89 1031.2
20180117130933 7 0 0.0 0.0 3.94 0.00 0.00 88 1031.2
20180117130433 7 0 0.0 0.0 3.94 0.00 0.00 88 1031.1
20180117125934 7 0 0.0 0.0 3.94 0.00 0.00 88 1031.1
20180117125433 8 0 0.0 0.0 3.94 0.00 0.00 88 1031.1
20180117124934 8 0 0.0 0.0 3.94 0.00 0.00 88 1031.1
20180117124434 8 0 0.0 0.0 3.94 0.00 0.00 87 1031.2
20180117123936 8 0 0.0 0.0 3.94 0.00 0.00 87 1031.2
20180117123436 8 0 0.0 0.0 3.94 0.00 0.00 89 1031.2
20180117122934 8 0 0.0 0.0 3.94 0.00 0.00 90 1031.2
20180117122434 9 0 0.0 0.0 3.94 0.00 0.00 91 1031.3
20180117121934 9 0 0.0 0.0 3.94 0.00 0.00 91 1031.4
20180117121434 9 0 0.0 0.0 3.94 0.00 0.00 89 1031.3
20180117120934 9 0 0.0 0.0 3.94 0.00 0.00 89 1031.4
20180117120434 9 0 0.0 0.0 3.94 0.00 0.00 91 1031.4
20180117115934 9 0 0.0 0.0 3.94 0.00 0.00 91 1031.4
20180117115436 9 0 0.0 0.0 3.94 0.00 0.00 92 1031.3
20180117114934 9 0 0.0 0.0 3.94 0.00 0.00 92 1031.4
20180117114435 9 0 0.0 0.0 3.94 0.00 0.00 92 1031.3
20180117113934 9 0 0.0 0.0 3.94 0.00 0.00 90 1031.3
20180117113434 9 0 0.0 0.0 3.94 0.00 0.00 91 1031.3
20180117112934 9 0 0.0 0.0 3.94 0.00 0.00 91 1031.3
20180117112434 9 0 0.0 0.0 3.94 0.00 0.00 92 1031.3
20180117111934 8 0 0.0 0.0 3.94 0.00 0.00 90 1031.3
20180117111437 8 0 0.0 0.0 3.94 0.00 0.00 92 1031.3
20180117110934 8 0 0.0 0.0 3.94 0.00 0.00 91 1031.3
20180117110434 8 0 0.0 0.0 3.94 0.00 0.00 90 1031.3
20180117105934 8 0 0.0 0.0 3.94 0.00 0.00 91 1031.4
20180117105434 8 0 0.0 0.0 3.94 0.00 0.00 91 1031.4
20180117104934 8 0 0.0 0.0 3.94 0.00 0.00 91 1031.2
20180117104434 8 0 0.0 0.0 3.94 0.00 0.00 91 1031.2
20180117103934 8 0 0.0 0.0 3.94 0.00 0.00 92 1031.2
20180117103434 8 0 0.0 0.0 3.94 0.00 0.00 91 1031.1
20180117102934 8 0 0.0 0.0 3.94 0.00 0.00 91 1031.0
20180117102434 8 0 0.0 0.0 3.94 0.00 0.00 91 1031.1
20180117101934 8 0 0.0 0.0 3.94 0.00 0.00 91 1031.0
20180117101434 8 0 0.0 0.0 3.94 0.00 0.00 91 1031.0
20180117100934 8 0 0.0 0.0 3.94 0.00 0.00 91 1031.0
20180117100435 8 0 0.0 0.0 3.94 0.00 0.00 91 1031.0
20180117095935 8 0 0.0 0.0 3.94 0.00 0.00 91 1030.9
20180117095434 8 0 0.0 0.0 3.94 0.00 0.00 91 1031.0
20180117094934 8 0 0.0 0.0 3.94 0.00 0.00 91 1031.1
20180117094434 8 0 0.0 0.0 3.94 0.00 0.00 91 1031.1
20180117093934 8 0 0.0 0.0 3.94 0.00 0.00 88 1031.0
20180117093434 8 0 0.0 0.0 3.94 0.00 0.00 89 1031.0
20180117092936 9 0 0.0 0.0 3.94 0.00 0.00 90 1030.9
20180117092435 9 0 0.0 0.0 3.94 0.00 0.00 91 1030.8
20180117091934 9 0 0.0 0.0 3.94 0.00 0.00 91 1030.9
20180117091434 9 0 0.0 0.0 3.94 0.00 0.00 91 1030.9
20180117090934 9 0 0.0 0.0 3.94 0.00 0.00 89 1030.9
20180117090434 9 0 0.0 0.0 3.94 0.00 0.00 90 1030.8
20180117085935 9 0 0.0 0.0 3.94 0.00 0.00 90 1030.9
20180117085434 9 0 0.0 0.0 3.94 0.00 0.00 90 1030.8
20180117084934 9 0 0.0 0.0 3.94 0.00 0.00 90 1030.7
20180117084434 9 0 0.0 0.0 3.94 0.00 0.00 91 1030.8
20180117083937 9 0 0.0 0.0 3.94 0.00 0.00 90 1031.0
20180117083434 9 0 0.0 0.0 3.94 0.00 0.00 91 1031.1
20180117082934 9 0 0.0 0.0 3.94 0.00 0.00 91 1031.1
20180117082435 9 0 0.0 0.0 3.94 0.00 0.00 90 1031.1
20180117081934 9 0 0.0 0.0 3.94 0.00 0.00 90 1031.2
20180117081434 9 0 0.0 0.0 3.94 0.00 0.00 92 1031.1
20180117080934 9 0 0.0 0.0 3.94 0.00 0.00 91 1031.1
20180117080435 9 0 0.0 0.0 3.94 0.00 0.00 91 1031.1
20180117075934 9 0 0.0 0.0 3.94 0.00 0.00 91 1031.1
20180117075434 9 0 0.0 0.0 3.94 0.00 0.00 91 1031.1
20180117074934 9 0 0.0 0.0 3.94 0.00 0.00 91 1031.1
20180117074434 9 0 0.0 0.0 3.94 0.00 0.00 91 1030.9
20180117073934 9 0 0.0 0.0 3.94 0.00 0.00 91 1031.0
20180117073434 9 0 0.0 0.0 3.94 0.00 0.00 91 1031.0
20180117072934 9 0 0.0 0.0 3.94 0.00 0.00 89 1030.9
20180117072434 9 0 0.0 0.0 3.94 0.00 0.00 88 1030.8
20180117071934 9 0 0.0 0.0 3.94 0.00 0.00 91 1030.8
20180117071434 9 0 0.0 0.0 3.94 0.00 0.00 91 1030.8
20180117070937 9 0 0.0 0.0 3.94 0.00 0.00 91 1030.8
20180117070434 9 0 0.0 0.0 3.94 0.00 0.00 88 1030.7
20180117065935 9 0 0.0 0.0 3.94 0.00 0.00 89 1030.7
20180117065434 9 0 0.0 0.0 3.94 0.00 0.00 87 1030.6
20180117064935 9 0 0.0 0.0 3.94 0.00 0.00 90 1030.6
20180117064434 9 0 0.0 0.0 3.94 0.00 0.00 91 1030.6
20180117063934 9 0 0.0 0.0 3.94 0.00 0.00 91 1030.4
20180117063434 9 0 0.0 0.0 3.94 0.00 0.00 91 1030.4
20180117062936 9 0 0.0 0.0 3.94 0.00 0.00 90 1030.3
20180117062434 9 0 0.0 0.0 3.94 0.00 0.00 89 1030.3
20180117061935 9 0 0.0 0.0 3.94 0.00 0.00 90 1030.1
20180117061435 9 0 0.0 0.0 3.94 0.00 0.00 89 1030.1
20180117060935 9 0 0.0 0.0 3.94 0.00 0.00 89 1030.2
20180117060434 9 0 0.0 0.0 3.94 0.00 0.00 90 1030.2
20180117055934 9 0 0.0 0.0 3.94 0.00 0.00 89 1030.1
20180117055435 9 0 0.0 0.0 3.94 0.00 0.00 92 1030.1
20180117054934 9 0 0.0 0.0 3.94 0.00 0.00 90 1030.0
20180117054434 9 0 0.0 0.0 3.94 0.00 0.00 92 1030.0
20180117053934 9 0 0.0 0.0 3.94 0.00 0.00 89 1030.0
20180117053434 9 0 0.0 0.0 3.94 0.00 0.00 89 1030.1